Location: Newark
(58.8333°N, 23.5833°E)
Time: 08:45:09
(UTC+00:00)

Explorer 7 - Pass Details

Date: 16 November 2019
Orbit: 485 x 680 km, 50.3° (Epoch: 11 December)

Event Time Altitude Azimuth Distance (km) Brightness Sun altitude
Rises 03:53:32 0° 262° (W) 2,764 - -18.0°
Reaches altitude 10° 03:56:17 10° 246° (WSW) 1,826 - -17.7°
Exits shadow 03:58:19 18° 218° (SW) 1,349 8.5 -17.4°
Maximum altitude 03:59:19 20° 198° (SSW) 1,269 8.5 -17.3°
Drops below altitude 10° 04:02:15 10° 150° (SSE) 1,745 9.9 -16.9°
Sets 04:04:48 0° 133° (SE) 2,601 11.2 -16.6°
